Weather History for Brno, Czech Republic

Change the Weather History Date:

Tuesday, February 12, 2013

  Actual Average Record
Temperature  
Mean Temperature 28 °F -  
Max Temperature 30 °F 42 °F - ()
Min Temperature 25 °F 28 °F - ()
Degree Days  
Heating Degree Days 38    
Moisture  
Dew Point 24 °F    
Average Humidity 88    
Maximum Humidity 100    
Minimum Humidity 72    
Precipitation  
Precipitation 0.20 in 0.03 in - ()
Sea Level Pressure  
Sea Level Pressure 29.79 in    
Wind  
Wind Speed 13 mph ()    
Max Wind Speed 20 mph    
Max Gust Speed -    
Visibility 2.2 miles    
Events Rain , Snow    
T = Trace of Precipitation, MM = Missing Value Source: Averaged Metar Reports

Daily Weather History Graph

Daily Weather History Graph

Search for Another Location

Airport:

Trip Planner

Search our weather history database for the weather conditions in past years. The results will help you decide how hot, cold, wet, or windy it might be!

Date:

Astronomy

Feb. 12, 2013 Rise Set
Actual Time 7:07 AM CET 5:08 PM CET
Civil Twilight 6:34 AM CET 5:41 PM CET
Nautical Twilight 5:56 AM CET 6:18 PM CET
Astronomical Twilight 5:20 AM CET 6:55 PM CET
Moon 7:37 AM CET (2/12) 8:10 PM CET (2/12)
Length of Visible Light 11h 07m
Length of Day
10h 01m
Waxing Crescent, 6% of the Moon is Illuminated
Feb 12
Waxing Crescent
Feb 17
First Quarter
Feb 25
Full
Mar 4
Last Quarter
Mar 11
New

Hourly Weather History & Observations

Time (CET) Temp. Windchill Dew Point Humidity Pressure Visibility Wind Dir Wind Speed Gust Speed Precip Events Conditions
12:00 AM 26.6 °F 13.1 °F 21.2 °F 80% 29.80 in 2.5 mi SE 19.6 mph - N/A Snow Light Snow
12:09 AM 26.6 °F 14.7 °F 21.2 °F 80% 29.80 in 2.5 mi ESE 15.0 mph - N/A Snow Light Snow
12:14 AM 24.8 °F 12.4 °F 21.2 °F 86% 29.80 in 1.7 mi ESE 15.0 mph - N/A Snow Light Snow
12:30 AM 24.8 °F 11.9 °F 21.2 °F 86% 29.80 in 1.6 mi ESE 16.1 mph - N/A Snow Light Snow
12:46 AM 24.8 °F 12.9 °F 21.2 °F 86% 29.80 in - ESE 13.8 mph - N/A Snow Light Snow
1:00 AM 26 °F - 21 °F 72% 29.87 in 3 mi ESE 13.4 mph - - Snow Light Snow
1:00 AM 26.6 °F 14.3 °F 21.2 °F 80% 29.80 in 3.1 mi ESE 16.1 mph - N/A Snow Light Snow
1:07 AM 24.8 °F 12.9 °F 21.2 °F 86% 29.80 in 1.7 mi ESE 13.8 mph - N/A Snow Light Snow
1:17 AM 24.8 °F 12.9 °F 23.0 °F 93% 29.80 in 1.7 mi ESE 13.8 mph - N/A Snow Light Snow
1:30 AM 26.6 °F 15.2 °F 23.0 °F 86% 29.80 in 2.5 mi ESE 13.8 mph - N/A Snow Light Snow
2:00 AM 24.8 °F 13.4 °F 23.0 °F 93% 29.80 in 2.2 mi ESE 12.7 mph - N/A Snow Light Snow
2:30 AM 26.6 °F 14.3 °F 21.2 °F 80% 29.80 in 4.3 mi ESE 16.1 mph - N/A Snow Light Snow
3:00 AM 26.6 °F 15.7 °F 21.2 °F 80% 29.77 in 6.2 mi ESE 12.7 mph - N/A Snow Light Snow
3:30 AM 26.6 °F 16.2 °F 21.2 °F 80% 29.77 in 6.2 mi East 11.5 mph - N/A Snow Light Snow
4:00 AM 26.6 °F 17.5 °F 21.2 °F 80% 29.77 in 6.2 mi East 9.2 mph - N/A   Overcast
4:04 AM 26.6 °F 16.8 °F 21.2 °F 80% 29.77 in 6.2 mi East 10.4 mph - N/A Snow Light Snow
4:30 AM 26.6 °F 16.8 °F 21.2 °F 80% 29.77 in 6.2 mi East 10.4 mph - N/A Snow Light Snow
5:00 AM 26.6 °F 16.2 °F 21.2 °F 80% 29.77 in 6.2 mi East 11.5 mph - N/A Snow Light Snow
5:23 AM 26.6 °F 17.5 °F 23.0 °F 86% 29.77 in 2.5 mi East 9.2 mph - N/A Snow Light Snow
5:30 AM 26.6 °F 17.5 °F 23.0 °F 86% 29.77 in 1.7 mi East 9.2 mph - N/A Snow Light Snow
5:51 AM 26.6 °F 16.2 °F 23.0 °F 86% 29.77 in 1.7 mi ENE 11.5 mph - N/A Snow Light Snow
6:00 AM 26.6 °F 16.2 °F 23.0 °F 86% 29.77 in 2.5 mi ENE 11.5 mph - N/A Snow Light Snow
6:06 AM 26.6 °F 16.2 °F 23.0 °F 86% 29.77 in 3.1 mi ENE 11.5 mph - N/A Snow Light Snow
6:30 AM 26.6 °F 16.2 °F 23.0 °F 86% 29.77 in 3.1 mi East 11.5 mph - N/A Snow Light Snow
6:35 AM 26.6 °F 15.7 °F 23.0 °F 86% 29.77 in 3.1 mi ENE 12.7 mph - N/A Snow Light Snow
7:00 AM 26 °F - 22 °F 78% 29.83 in 2 mi ENE 15.7 mph - - Snow Light Snow
7:00 AM 26.6 °F 15.7 °F 23.0 °F 86% 29.74 in 2.5 mi ENE 12.7 mph - N/A Snow Light Snow
7:11 AM 26.6 °F 15.7 °F 23.0 °F 86% 29.74 in 1.9 mi ENE 12.7 mph - N/A Snow Light Snow
7:30 AM 26.6 °F 15.2 °F 23.0 °F 86% 29.74 in 0.9 mi ENE 13.8 mph - N/A Snow Snow
8:00 AM 26.6 °F 15.2 °F 23.0 °F 86% 29.74 in 1.6 mi ENE 13.8 mph - N/A Snow Light Snow
8:18 AM 26.6 °F 15.2 °F 23.0 °F 86% 29.77 in 2.2 mi ENE 13.8 mph - N/A Snow Light Snow
8:30 AM 26.6 °F 14.7 °F 23.0 °F 86% 29.77 in 2.2 mi ENE 15.0 mph - N/A Snow Light Snow
8:36 AM 26.6 °F 14.7 °F 23.0 °F 86% 29.77 in 1.4 mi ENE 15.0 mph - N/A Snow Light Snow
9:00 AM 26.6 °F 14.7 °F 23.0 °F 86% 29.77 in 2.2 mi ENE 15.0 mph - N/A Snow Light Snow
9:17 AM 26.6 °F 14.3 °F 23.0 °F 86% 29.77 in 0.9 mi ENE 16.1 mph - N/A Snow Light Snow
9:30 AM 26.6 °F 14.7 °F 23.0 °F 86% 29.77 in 0.9 mi ENE 15.0 mph - N/A Snow Light Snow
9:37 AM 26.6 °F 15.2 °F 24.8 °F 93% 29.77 in 0.9 mi ENE 13.8 mph - N/A Snow Light Snow
10:00 AM 26.6 °F 15.2 °F 24.8 °F 93% 29.77 in 0.7 mi ENE 13.8 mph - N/A Snow Light Snow
10:09 AM 26.6 °F 14.7 °F 24.8 °F 93% 29.77 in 0.5 mi ENE 15.0 mph - N/A Snow Snow
10:30 AM 26.6 °F 14.7 °F 24.8 °F 93% 29.77 in 0.5 mi ENE 15.0 mph - N/A Snow Snow
11:00 AM 26.6 °F 14.7 °F 24.8 °F 93% 29.77 in 0.9 mi ENE 15.0 mph - N/A Snow Light Snow
11:14 AM 26.6 °F 14.7 °F 24.8 °F 93% 29.77 in 0.5 mi ENE 15.0 mph - N/A Snow Snow
11:30 AM 26.6 °F 15.2 °F 24.8 °F 93% 29.77 in 0.5 mi ENE 13.8 mph - N/A Snow Snow
12:00 PM 28.4 °F 16.6 °F 24.8 °F 86% 29.77 in 0.9 mi ENE 16.1 mph - N/A Snow Light Snow
12:05 PM 28.4 °F 16.6 °F 24.8 °F 86% 29.77 in 0.9 mi ENE 16.1 mph - N/A Snow Light Snow
12:30 PM 28.4 °F 16.2 °F 26.6 °F 93% 29.77 in 0.9 mi ENE 17.3 mph - N/A Snow Light Snow
1:00 PM 28 °F - 25 °F 84% 29.83 in 1 mi ENE 15.7 mph - - Snow Snow
1:00 PM 28.4 °F 16.6 °F 24.8 °F 86% 29.77 in 0.7 mi ENE 16.1 mph - N/A Snow Light Snow
1:04 PM 28.4 °F 16.6 °F 24.8 °F 86% 29.77 in 0.4 mi ENE 16.1 mph - N/A Snow Snow
1:30 PM 28.4 °F 17.0 °F 26.6 °F 93% 29.74 in 0.5 mi ENE 15.0 mph - N/A Snow Snow
1:33 PM 28.4 °F 16.6 °F 26.6 °F 93% 29.74 in 0.9 mi ENE 16.1 mph - N/A Snow Light Snow
2:00 PM 28.4 °F 16.6 °F 26.6 °F 93% 29.74 in 1.9 mi ENE 16.1 mph - N/A Snow Light Snow
2:30 PM 28.4 °F 17.0 °F 26.6 °F 93% 29.74 in - ENE 15.0 mph - N/A Snow Light Snow
3:00 PM 28.4 °F 17.0 °F 26.6 °F 93% 29.74 in 3.1 mi ENE 15.0 mph - N/A Snow Light Snow
3:30 PM 28.4 °F 17.0 °F 26.6 °F 93% 29.77 in 3.7 mi ENE 15.0 mph - N/A Snow Light Snow
4:00 PM 30.2 °F 20.2 °F 26.6 °F 86% 29.77 in 4.3 mi ENE 12.7 mph - N/A   Overcast
4:09 PM 30.2 °F 20.2 °F 26.6 °F 86% 29.77 in 4.3 mi ENE 12.7 mph - N/A   Overcast
4:14 PM 30.2 °F 20.8 °F 26.6 °F 86% 29.77 in 4.3 mi ENE 11.5 mph - N/A Snow Light Snow
4:30 PM 30.2 °F 21.3 °F 26.6 °F 86% 29.77 in 4.3 mi ENE 10.4 mph - N/A Snow Light Snow
5:00 PM 30.2 °F 21.3 °F 26.6 °F 86% 29.77 in 3.1 mi ENE 10.4 mph - N/A Snow Light Snow
5:30 PM 30.2 °F 21.9 °F 26.6 °F 86% 29.80 in 3.1 mi ENE 9.2 mph - N/A Snow Light Snow
6:00 PM 30.2 °F 25.4 °F 28.4 °F 93% 29.80 in 3.1 mi ENE 4.6 mph - N/A Snow Light Snow
6:30 PM 30.2 °F 23.4 °F 28.4 °F 93% 29.83 in 1.9 mi ENE 6.9 mph - N/A   Light Freezing Rain
7:00 PM 31 °F - 28 °F 82% 29.88 in 1 mi ENE 6.7 mph - - Rain Light Freezing Drizzle
7:00 PM 30.2 °F 23.4 °F 28.4 °F 93% 29.83 in 1.2 mi ENE 6.9 mph - N/A   Light Freezing Rain
7:30 PM 30.2 °F 22.6 °F 28.4 °F 93% 29.83 in 1.2 mi ENE 8.1 mph - N/A   Light Freezing Rain
8:00 PM 30.2 °F 23.4 °F 28.4 °F 93% 29.83 in 0.9 mi ENE 6.9 mph - N/A   Light Freezing Rain
8:30 PM 28.4 °F 20.4 °F 28.4 °F 100% 29.83 in 0.9 mi ENE 8.1 mph - N/A Snow Light Snow
9:00 PM 28.4 °F 19.7 °F 26.6 °F 93% 29.86 in 0.9 mi ENE 9.2 mph - N/A Snow Light Snow
9:30 PM 28.4 °F 20.4 °F 26.6 °F 93% 29.86 in 1.1 mi ENE 8.1 mph - N/A Snow Light Snow
10:00 PM 28.4 °F 20.4 °F 26.6 °F 93% 29.86 in 1.2 mi ENE 8.1 mph - N/A Snow Light Snow
10:30 PM 28.4 °F 19.7 °F 26.6 °F 93% 29.86 in 1.4 mi East 9.2 mph - N/A Snow Light Snow
11:00 PM 28.4 °F 21.2 °F 26.6 °F 93% 29.89 in 1.2 mi ENE 6.9 mph - N/A Snow Light Snow
11:30 PM 28.4 °F 20.4 °F 26.6 °F 93% 29.89 in 0.9 mi ENE 8.1 mph - N/A Snow Light Snow